Location: Unspecified
(40.7945°N, 111.1337°W)
Time: 23:56:01
(UTC-06:00)

Cosmos 1674 - Pass Details

Date: 30 March 2019
Orbit: 497 x 518 km, 82.5° (Epoch: 25 April)

Event Time Altitude Azimuth Distance (km) Brightness Sun altitude
Rises 21:22:03 0° 336° (NNW) 2,619 7.0 -18.2°
Reaches altitude 10° 21:24:33 10° 320° (NW) 1,732 6.3 -18.6°
Maximum altitude 21:27:24 21° 271° (W) 1,202 5.3 -19.1°
Drops below altitude 10° 21:30:16 10° 222° (SW) 1,730 5.6 -19.6°
Sets 21:32:46 0° 206° (SSW) 2,614 6.3 -20.0°
